TimeCST,TemperatureF,Dew PointF,Humidity,Sea Level PressureIn,VisibilityMPH,Wind Direction,Wind SpeedMPH,Gust SpeedMPH,PrecipitationIn,Events,Conditions,WindDirDegrees,DateUTC
12:15 AM,29.3,20.1,69,30.40,10.0,Calm,Calm,-,N/A,,Clear,0,2013-12-31 06:15:00
12:35 AM,28.8,19.4,68,30.40,10.0,SSW,4.6,-,N/A,,Clear,200,2013-12-31 06:35:00
12:55 AM,25.7,19.2,76,30.40,10.0,West,4.6,-,N/A,,Clear,270,2013-12-31 06:55:00
1:15 AM,26.2,19.8,76,30.39,10.0,West,3.5,-,N/A,,Clear,280,2013-12-31 07:15:00
1:35 AM,25.9,19.4,76,30.39,10.0,WNW,5.8,-,N/A,,Clear,290,2013-12-31 07:35:00
1:55 AM,25.5,19.2,77,30.39,10.0,WNW,4.6,-,N/A,,Clear,290,2013-12-31 07:55:00
2:15 AM,27.3,20.3,75,30.39,10.0,WNW,3.5,-,N/A,,Clear,300,2013-12-31 08:15:00
2:35 AM,27.3,20.3,75,30.40,10.0,West,4.6,-,N/A,,Clear,270,2013-12-31 08:35:00
2:55 AM,25.7,19.4,77,30.39,10.0,West,3.5,-,N/A,,Clear,270,2013-12-31 08:55:00
3:15 AM,26.4,19.9,77,30.38,10.0,Calm,Calm,-,N/A,,Clear,0,2013-12-31 09:15:00
3:35 AM,25.7,19.4,77,30.38,10.0,South,3.5,-,N/A,,Clear,180,2013-12-31 09:35:00
3:55 AM,25.5,19.4,78,30.38,10.0,South,4.6,-,N/A,,Clear,180,2013-12-31 09:55:00
4:15 AM,25.3,19.2,78,30.38,10.0,Calm,Calm,-,N/A,,Clear,0,2013-12-31 10:15:00
4:35 AM,25.0,19.4,79,30.38,10.0,Calm,Calm,-,N/A,,Clear,0,2013-12-31 10:35:00
4:55 AM,23.5,18.3,80,30.37,10.0,West,3.5,-,N/A,,Clear,280,2013-12-31 10:55:00
5:15 AM,23.5,18.9,82,30.36,10.0,Calm,Calm,-,N/A,,Clear,0,2013-12-31 11:15:00
5:35 AM,24.1,18.9,80,30.36,10.0,Calm,Calm,-,N/A,,Clear,0,2013-12-31 11:35:00
5:55 AM,23.7,18.7,81,30.37,10.0,West,5.8,-,N/A,,Clear,280,2013-12-31 11:55:00
6:15 AM,24.6,19.4,81,30.36,10.0,NW,4.6,-,N/A,,Clear,310,2013-12-31 12:15:00
6:35 AM,24.4,19.0,80,30.36,10.0,NW,4.6,-,N/A,,Clear,310,2013-12-31 12:35:00
6:55 AM,26.2,19.9,77,30.36,10.0,Calm,Calm,-,N/A,,Clear,0,2013-12-31 12:55:00
7:15 AM,26.8,19.8,75,30.37,10.0,West,3.5,-,N/A,,Clear,260,2013-12-31 13:15:00
7:35 AM,26.2,19.6,76,30.36,10.0,Calm,Calm,-,N/A,,Clear,0,2013-12-31 13:35:00
7:55 AM,25.3,19.4,78,30.37,10.0,Calm,Calm,-,N/A,,Clear,0,2013-12-31 13:55:00
8:15 AM,26.8,20.5,77,30.37,10.0,West,3.5,-,N/A,,Clear,280,2013-12-31 14:15:00
8:35 AM,27.3,21.2,78,30.37,10.0,Calm,Calm,-,N/A,,Clear,0,2013-12-31 14:35:00
8:55 AM,28.0,22.3,79,30.37,10.0,Calm,Calm,-,N/A,,Clear,0,2013-12-31 14:55:00
9:15 AM,30.2,23.9,77,30.36,10.0,Calm,Calm,-,N/A,,Clear,0,2013-12-31 15:15:00
9:35 AM,32.2,25.2,75,30.36,10.0,Calm,Calm,-,N/A,,Clear,0,2013-12-31 15:35:00
9:55 AM,34.9,26.6,72,30.37,10.0,Calm,Calm,-,N/A,,Clear,0,2013-12-31 15:55:00
10:15 AM,37.8,27.9,67,30.37,10.0,South,3.5,-,N/A,,Clear,170,2013-12-31 16:15:00
10:35 AM,40.3,27.3,60,30.37,10.0,SSW,5.8,-,N/A,,Clear,200,2013-12-31 16:35:00
10:55 AM,42.4,27.3,55,30.36,10.0,SSW,5.8,-,N/A,,Clear,200,2013-12-31 16:55:00
11:15 AM,45.3,27.5,50,30.35,10.0,SSW,6.9,-,N/A,,Clear,200,2013-12-31 17:15:00
11:35 AM,47.8,26.8,44,30.35,10.0,SSW,11.5,-,N/A,,Clear,210,2013-12-31 17:35:00
11:55 AM,49.1,25.9,40,30.33,10.0,SSW,10.4,-,N/A,,Clear,200,2013-12-31 17:55:00
12:15 PM,50.7,25.0,37,30.31,10.0,SSW,11.5,-,N/A,,Clear,200,2013-12-31 18:15:00
12:35 PM,52.2,24.4,34,30.29,10.0,SSW,17.3,-,N/A,,Clear,200,2013-12-31 18:35:00
12:55 PM,53.2,24.4,33,30.27,10.0,SSW,15.0,-,N/A,,Clear,200,2013-12-31 18:55:00
1:15 PM,54.0,24.8,32,30.26,10.0,SSW,16.1,-,N/A,,Clear,200,2013-12-31 19:15:00
1:35 PM,55.2,25.0,31,30.24,10.0,South,17.3,20.7,N/A,,Clear,190,2013-12-31 19:35:00
1:55 PM,56.1,24.8,30,30.22,10.0,SSW,13.8,-,N/A,,Clear,210,2013-12-31 19:55:00
2:15 PM,56.8,25.0,29,30.20,10.0,South,15.0,-,N/A,,Clear,190,2013-12-31 20:15:00
2:35 PM,57.4,25.0,29,30.19,10.0,SSW,15.0,-,N/A,,Clear,200,2013-12-31 20:35:00
2:55 PM,57.9,25.0,28,30.18,10.0,South,13.8,-,N/A,,Clear,190,2013-12-31 20:55:00
3:15 PM,58.1,25.2,28,30.17,10.0,South,17.3,-,N/A,,Clear,190,2013-12-31 21:15:00
3:35 PM,58.3,25.7,29,30.16,10.0,SSW,13.8,-,N/A,,Clear,200,2013-12-31 21:35:00
3:55 PM,58.3,26.2,29,30.16,10.0,South,15.0,-,N/A,,Clear,190,2013-12-31 21:55:00
4:15 PM,58.3,26.6,30,30.16,10.0,South,15.0,-,N/A,,Clear,180,2013-12-31 22:15:00
4:35 PM,58.1,26.8,30,30.16,10.0,South,13.8,-,N/A,,Clear,170,2013-12-31 22:35:00
4:55 PM,57.2,27.1,32,30.15,10.0,South,13.8,-,N/A,,Clear,170,2013-12-31 22:55:00
5:15 PM,55.8,27.3,34,30.14,10.0,SSE,11.5,-,N/A,,Clear,160,2013-12-31 23:15:00
5:35 PM,53.6,27.7,37,30.13,10.0,SSE,12.7,-,N/A,,Clear,160,2013-12-31 23:35:00
5:55 PM,-9999,-9999,N/A,30.13,10.0,SSE,11.5,-,N/A,,Unknown,160,2013-12-31 23:55:00
6:15 PM,49.6,28.4,44,30.12,10.0,SSE,11.5,-,N/A,,Clear,160,2014-01-01 00:15:00
6:35 PM,48.6,28.0,45,30.12,10.0,SSE,10.4,-,N/A,,Clear,160,2014-01-01 00:35:00
6:55 PM,47.5,28.0,47,30.12,10.0,SSE,11.5,-,N/A,,Clear,160,2014-01-01 00:55:00
7:15 PM,47.1,28.2,48,30.12,10.0,SSE,9.2,-,N/A,,Clear,160,2014-01-01 01:15:00
7:35 PM,46.2,28.4,50,30.12,10.0,SSE,10.4,-,N/A,,Clear,160,2014-01-01 01:35:00
7:55 PM,45.1,28.4,52,30.11,10.0,SSE,11.5,-,N/A,,Clear,160,2014-01-01 01:55:00
8:15 PM,45.1,28.9,53,30.11,10.0,SSE,10.4,-,N/A,,Clear,160,2014-01-01 02:15:00
8:35 PM,45.0,28.9,53,30.11,10.0,SSE,10.4,-,N/A,,Clear,160,2014-01-01 02:35:00
8:55 PM,43.5,28.9,56,30.11,10.0,SSE,8.1,-,N/A,,Clear,150,2014-01-01 02:55:00
9:15 PM,42.3,28.9,59,30.11,10.0,SSE,9.2,-,N/A,,Clear,150,2014-01-01 03:15:00
9:35 PM,41.7,29.1,61,30.10,10.0,South,8.1,-,N/A,,Clear,170,2014-01-01 03:35:00
9:55 PM,40.5,28.8,63,30.11,10.0,Calm,Calm,-,N/A,,Clear,0,2014-01-01 03:55:00
10:15 PM,40.1,28.4,63,30.11,10.0,Calm,Calm,-,N/A,,Clear,0,2014-01-01 04:15:00
10:35 PM,40.1,28.6,63,30.10,10.0,South,5.8,-,N/A,,Clear,190,2014-01-01 04:35:00
10:55 PM,39.0,28.6,66,30.09,10.0,South,8.1,-,N/A,,Clear,180,2014-01-01 04:55:00
11:15 PM,38.7,28.6,67,30.08,10.0,South,5.8,-,N/A,,Clear,170,2014-01-01 05:15:00
11:35 PM,38.1,28.4,68,30.08,10.0,South,6.9,-,N/A,,Clear,170,2014-01-01 05:35:00
11:55 PM,38.7,29.3,69,30.07,10.0,South,8.1,-,N/A,,Clear,180,2014-01-01 05:55:00